ROMMA est une association bénévole à but non lucratif. Votre soutien est indispensable : ADHERER à ROMMA ou FAIRE un DON

Chambon - (38, Isère)

Oisans (2460 m)   Longitude: 06° 10' 42" E   Latitude: 45° 01' 32" N Station partenaire n°803
 

Détail journalier du     <<     >>

Température Humidité Vent Dir Rafale Dir. rafale Neige 1 Neige 2
Heure (°C) (%) (km/h) (km/h) (cm) (cm)
01:00 9.9601NE2NE10
02:00 10.6531NNE3NE11
03:00 10.5531NE3NE11
04:00 10.6533S7O11
05:00 10.6535SO8OSO10
06:00 10.2542ENE6SO11
07:00 10.5543NNE5NNO01
08:00 10.3554SO10OSO00
09:00 13.5473N8N00
10:00 12.9505NE12NE00
11:00 14.5503N12NE00
12:00 13.9494O13O00
13:00 14.0516O19O10
14:00 14.9506OSO18OSO10
15:00 15.1528OSO20OSO00
16:00 13.9578OSO28ONO00
17:00 15.65310ONO26ONO00
18:00 15.05716O30O00
19:00 13.96120O31O00
20:00 12.66719O31O00
21:00 11.27212OSO25O01
22:00 10.5756SO12SO21
23:00 9.7782NE7OSO22
minuit 10.0742NE5S22

Graphique du 26-08-2019

 

Serveur OMMA